Regional Weather Roundup
Issued by NWS Midland/Odessa, TX

Skip options and go directly to product.
Home | Oldest Version | Previous Version | Current Version | All | Graphics & Text | Save Text | Print | Product List | Glossary On

Skip product version selection by date and time.   
852
ASUS44 KMAF 041610
RWRMAF
MIDLAND AREA WEATHER ROUNDUP
NATIONAL WEATHER SERVICE MIDLAND TX
1000 AM CST WED MAR 04 2015

...IN SOUTHWEST TEXAS AND SOUTHEAST NEW MEXICO...

CITY           SKY/WX    TMP DP  RH WIND       PRES   REMARKS
ALPINE         CLOUDY    52  46  79 CALM      30.02R
ANDREWS        CLOUDY    51  46  82 N8        29.94R
ARTESIA        CLOUDY    43  41  93 N16       29.95R WCI  35
BIG SPRING     CLOUDY    46  43  91 NE20      29.99R WCI  38
CARLSBAD       CLOUDY    52  44  74 S8        29.90R
DRYDEN           N/A     53  51  93 N3        29.89R
FORT STOCKTON  CLOUDY    55  44  66 NW15      29.94R
GUAD PASS      NOT AVBL
HOBBS          LGT RAIN  48  48 100 CALM      29.95R
MARFA          CLOUDY    52  45  76 NE6       29.97R
MIDLAND AIRPK  CLOUDY    54  50  86 NE8       29.95R
MIDLAND INTL   CLOUDY    53  48  83 N13       29.93R
ODESSA         CLOUDY    54  43  66 N13       29.94R
PECOS          LGT RAIN  52  47  83 CALM      29.93S
PRESIDIO       FAIR      62  50  65 MISG      29.88R
SEMINOLE       LGT RAIN  49  45  87 N5        29.96R
SNYDER         LGT RAIN  37  36  98 N20G26    30.02R WCI  26
WINK           CLOUDY    55  43  63 N8        29.93R
$$
...OTHER STATIONS IN TEXAS...

CITY           SKY/WX    TMP DP  RH WIND       PRES   REMARKS
ABILENE        LGT RAIN  44  42  93 N22       29.99R FOG     WCI  35
AMARILLO       CLOUDY    20  19  96 NE22      30.14R FOG     WCI   3
AUSTIN         CLOUDY    63  63 100 CALM      29.85S FOG
BROWNSVILLE    CLOUDY    73  69  87 S18       29.86R
CORPUS CHRISTI CLOUDY    70  68  93 S18       29.86R FOG
DALLAS FTW     LGT RAIN  46  44  93 N18       29.95R FOG     WCI  39
DEL RIO        CLOUDY    59  54  83 W9        29.88R
EL PASO        MOSUNNY   53  37  54 SW9       29.93R
HOUSTON INT    CLOUDY    74  67  78 S14G21    29.91S
LUBBOCK        FRZ RAIN  31  30  96 NE20G25   30.04R FOG     WCI  19
SAN ANGELO     CLOUDY    56  51  84 CALM      29.90R
SAN ANTONIO    FOG       67  64  90 S7        29.86R VSB 1
WACO           LGT RAIN  55  55 100 N10       29.89R VSB 1/8
WICHITA FALLS  NOT AVBL
$$
...OTHER LOCATIONS IN NEW MEXICO...

CITY           SKY/WX    TMP DP  RH WIND       PRES   REMARKS
ALAMAGORDO     MOSUNNY   52  41  66 S10       29.93R
ALBUQUERQUE    MOSUNNY   41  27  57 N8        29.97R WCI  36
CANNON AFB     FRZ DRZL  28  28 100 NE21      30.00R FOG     WCI  15
CLOVIS         CLOUDY    27  25  93 NE23      30.02R WCI  12
HOLLOMAN AFB   NOT AVBL
ROSWELL        PTSUNNY   42  36  79 N17       29.96R WCI  34
RUIDOSO        SUNNY     41  27  56 CALM      29.96R
SANTA FE       SUNNY     36  25  64 CALM      29.93R
TRUTH OR CONSE MOSUNNY   46  27  47 N5        29.94R
TUCUMCARI      CLOUDY    26  24  92 NE17G28   30.07R FOG     WCI  13
$$

USA.gov is the U.S. government's official web portal to all federal, state and local government web resources and services.